This demonstration page uses our WeatherBlox Daily Observations layout. Learn more.

Left ArrowRight Arrow

Hourly Observations for September 5, 2019

Temp ( °F °C ) Dew Point ( °F °C ) Humidity (%) Winds ( mph kmh ) Pressure ( in mb ) Visibility ( mi km ) Precip ( " mm )
12:53 am 00:53 Clear 67 19.4 60 15.6 79 79 SSE 9 15 30.03 1017 10 16 0.00 0.00
1:53 am 01:53 Clear 66 18.9 61 16.1 84 84 SSE 8 13 30.02 1017 10 16 0.00 0.00
2:53 am 02:53 Clear 66 18.9 62 16.7 87 87 SSE 7 11 30.02 1017 10 16 0.00 0.00
4:53 am 04:53 Clear 68 20 64 17.8 87 87 S 9 15 29.97 1015 10 16 0.00 0.00
5:53 am 05:53 Clear 69 20.6 64 17.8 84 84 S 12 19 29.95 1014 10 16 0.00 0.00
6:53 am 06:53 Clear 70 21.1 63 17.2 79 79 SSW 9 15 29.96 1015 10 16 0.00 0.00
7:53 am 07:53 Sunny 71 21.7 62 16.7 73 73 SSW 10 17 29.96 1015 10 16 0.00 0.00
8:53 am 08:53 Sunny 73 22.8 62 16.7 69 69 SSW 9 15 29.96 1015 10 16 0.00 0.00
9:53 am 09:53 Sunny 75 23.9 62 16.7 64 64 SW 12 19 29.97 1015 10 16 0.00 0.00
10:53 am 10:53 Sunny 80 26.7 63 17.2 56 56 S 9 15 29.96 1015 10 16 0.00 0.00
11:53 am 11:53 Sunny 83 28.3 65 18.3 55 55 S 10 17 29.96 1014 10 16 0.00 0.00
12:53 pm 12:53 Sunny 86 30 64 17.8 48 48 S 9 15 29.95 1014 10 16 0.00 0.00
1:53 pm 13:53 Sunny 88 31.1 66 18.9 48 48 S 9 15 29.94 1014 10 16 0.00 0.00
2:53 pm 14:53 Sunny 90 32.2 66 18.9 45 45 SSW 8 13 29.93 1014 10 16 0.00 0.00
3:53 pm 15:53 Sunny 92 33.3 68 20 46 46 SSW 10 17 29.92 1013 10 16 0.00 0.00
4:53 pm 16:53 Sunny 93 33.9 67 19.4 42 42 S 7 11 29.91 1013 10 16 0.00 0.00
5:53 pm 17:53 Sunny 92 33.3 66 18.9 43 43 SSW 7 11 29.91 1013 10 16 0.00 0.00
6:53 pm 18:53 Sunny 91 32.8 68 20 47 47 SSE 5 7 29.91 1013 10 16 0.00 0.00
7:53 pm 19:53 Sunny 83 28.3 72 22.2 70 70 N 7 11 29.93 1014 9 14 0.00 0.00
8:53 pm 20:53 Clear 80 26.7 73 22.8 79 79 NNE 8 13 29.96 1014 10 16 0.00 0.00
9:53 pm 21:53 Clear 77 25 72 22.2 85 85 undefined N/A 29.98 1015 10 16 0.00 0.00
10:53 pm 22:53 Clear 77 25 71 21.7 82 82 NE 8 13 29.98 1015 10 16 0.00 0.00
11:53 pm 23:53 Clear 76 24.4 71 21.7 85 85 NNE 10 17 30.00 1016 10 16 0.00 0.00

Powered by AerisWeather